Location: Napier
(39.4830°S, 176.9170°E)
Time: 18:52:50
(UTC+13:00)

Lacrosse 5 - Pass Details

Date: 24 January 2019
Orbit: 713 x 725 km, 57.0° (Epoch: 17 February)

Event Time Altitude Azimuth Distance (km) Brightness Sun altitude
Rises 22:52:57 0° 240° (WSW) 3,162 6.4 -21.5°
Reaches altitude 10° 22:56:10 10° 260° (W) 2,230 5.0 -21.9°
Maximum altitude 22:59:18 16° 298° (WNW) 1,821 4.0 -22.2°
Enters shadow 23:01:11 14° 323° (NW) 1,970 4.0 -22.4°
